User: anonymous   Login
Location: Hylvaty SDH
(49.9612°N, 16.4057°E)
Time: 19:36:03
(UTC+02:00)
Language:

Transit 4A - Orbit

View from above orbital plane
View from above orbital plane
View from above satellite
View from above satellite

Ground track
Ground track

The orbit data is extracted from the following two-line orbital elements,

1   116U 61015A   20221.85951275 -.00000080 +00000-0 -21292-5 0  9991
2   116 066.8097 080.1073 0079048 327.6494 031.9751 13.91773367999110
Epoch (UTC): 08 August 2020 20:37:41
Eccentricity: 0.0079048
inclination: 66.8097°
perigee height: 865 km
apogee height: 980 km
right ascension of ascending node: 80.1073°
argument of perigee: 327.6494°
revolutions per day: 13.91773367
mean anomaly at epoch: 31.9751°
orbit number at epoch: 99911

The dashed part of the orbit path shows where the satellite is in the earth's shadow,  

DLR